Regional Weather Roundup
Issued by NWS Bismarck, ND

Home | Current Version | Previous Version | Text Only | Print | Product List | Glossary On
Versions: 1 2 3 4 5 6 7 8 9 10 11 12 13 14 15 16 17 18 19 20 21 22 23 24 25 26 27 28 29 30 31 32 33 34 35 36 37 38 39 40 41 42 43 44 45 46 47 48 49 50
000
ASUS43 KBIS 161210
RWRBIS

NWR BROADCAST TEXT
NATIONAL WEATHER SERVICE BISMARCK ND
700 AM CDT WED AUG 16 2017

NOTE: "FAIR" INDICATES FEW OR NO CLOUDS BELOW 12,000 FEET WITH NO
SIGNIFICANT WEATHER AND/OR OBSTRUCTIONS TO VISIBILITY.


CITY           SKY/WX    TMP DP  RH WIND       PRES   REMARKS
WILLISTON      CLEAR     53  52  96 CALM      29.95R
MINOT          FOG       59  58  96 SW5       29.90S VSB 1/4
MINOT AFB      CLOUDY    55  55 100 NW5       29.90S
BISMARCK       CLOUDY    61  59  93 NW10      29.90S
DICKINSON      FOG       55  55 100 W7        29.94S VSB 1/4
GARRISON         N/A     56  56 100 N5        29.91S
HETTINGER ARPT FOG       55  54  96 W5        29.97S VSB<1/4
JAMESTOWN      CLOUDY    64  63  96 SE3       29.82F
CARRINGTON     FOG       63  63 100 N6        29.87S VSB 3/4
HAZEN          CLOUDY    59  59 100 CALM      29.93F
LINTON         CLOUDY    61  61 100 NW8G16    29.89S
MANDAN         CLOUDY    59  59 100 NW9       29.90F FOG
RUGBY          CLOUDY    59  59 100 N5        29.90R FOG
STANLEY        FAIR      52  52 100 NW6       29.96S
TIOGA          FAIR      50  50 100 W3        29.96S FOG
WATFORD CITY   FOG       54  54 100 CALM      29.94S VSB<1/4
$$

CITY           SKY/WX    TMP DP  RH WIND       PRES   REMARKS
GRAND FORKS    LGT RAIN  64  62  93 SE6       29.86S
GRAND FORKS AF LGT RAIN  63  62  97 SE9       29.86S
DEVILS LAKE    CLOUDY    62  61  96 NE7       29.87S
FARGO          CLOUDY    64  64 100 SE6       29.84F FOG
CANDO          PTSUNNY   61  61 100 NE6       29.91S FOG
CAVALIER       PTSUNNY   63  61  94 CALM      29.89S FOG
GRAFTON        CLOUDY    63  63 100 E6        29.90S FOG
GWINNER        FOG       63  63 100 CALM      29.84F VSB 1
LANGDON        CLOUDY    61  61 100 E8        29.91S
ROLLA          CLOUDY    59  61 100 CALM      29.92R
WALHALLA       FAIR      61  61 100 NW3       29.90S FOG
$$

CITY           SKY/WX    TMP DP  RH WIND       PRES   REMARKS
ABERDEEN       CLOUDY    65  65 100 W3        29.82F FOG
MOBRIDGE       CLOUDY    63  61  93 NW12      29.84F
BUFFALO          N/A     53  52  96 NW6       29.92R
RAPID CITY     MOCLDY    60  54  80 NW13      29.96R
GLASGOW        CLEAR     54  44  69 E12       29.92S
SIDNEY         CLOUDY    52  52 100 CALM      29.95R FOG
WOLF POINT     CLEAR     50  46  86 CALM      29.94R
GLENDIVE       CLEAR     54  52  93 CALM      29.97R
MILES CITY     CLEAR     54  44  69 SE9       29.96S
BAKER          FOG       50  47  89 CALM      29.99S VSB 1/2
$$

CITY           SKY/WX    TMP DP  RH WIND       PRES   REMARKS
BILLINGS       PTCLDY    54  45  71 SW14      29.98R
GREAT FALLS    CLEAR     49  29  46 SW7       29.97R
REGINA         PTCLDY    46  43  87 S7        29.93R
ESTEVAN        FOG       45  45 100 NW3       29.94S VSB 3/4
$$





USA.gov is the U.S. government's official web portal to all federal, state and local government web resources and services.